This demonstration page uses our WeatherBlox Daily Observations layout. Learn more.

Left ArrowRight Arrow

Hourly Observations for February 19, 2016

Temp ( °F °C ) Dew Point ( °F °C ) Humidity (%) Winds ( mph kmh ) Pressure ( in mb ) Visibility ( mi km ) Precip ( " mm )
12:15 am 00:15 Clear 61 16 34 1 36 36 W 26 43 29.44 997 10 16 0.00 0.00
12:35 am 00:35 Clear 57 14 36 2 44 44 W 31 50 29.47 998 10 16 0.00 0.00
12:55 am 00:55 Clear 55 13 32 0 41 41 W 28 44 29.50 999 10 16 0.00 0.00
1:15 am 01:15 Clear 55 13 28 -2 36 36 W 24 39 29.50 999 10 16 0.00 0.00
1:35 am 01:35 Clear 55 13 28 -2 36 36 W 29 46 29.50 999 10 16 0.00 0.00
1:55 am 01:55 Clear 55 13 25 -4 31 31 W 28 44 29.53 1000 10 16 0.00 0.00
2:15 am 02:15 Clear 54 12 21 -6 28 28 W 37 59 29.56 1001 9 14 0.00 0.00
2:35 am 02:35 Clear 54 12 21 -6 28 28 W 33 54 29.59 1002 10 16 0.00 0.00
2:55 am 02:55 Mostly Clear 52 11 21 -6 30 30 WNW 30 48 29.65 1004 10 16 0.00 0.00
3:15 am 03:15 Clear 52 11 19 -7 28 28 W 25 41 29.68 1005 10 16 0.00 0.00
3:35 am 03:35 Clear 50 10 21 -6 32 32 W 23 37 29.68 1005 10 16 0.00 0.00
3:55 am 03:55 Clear 48 9 21 -6 34 34 W 20 31 29.74 1007 10 16 0.00 0.00
4:15 am 04:15 Clear 48 9 21 -6 34 34 W 21 33 29.77 1008 10 16 0.00 0.00
4:35 am 04:35 Clear 48 9 21 -6 34 34 W 21 33 29.77 1008 10 16 0.00 0.00
4:55 am 04:55 Clear 48 9 21 -6 34 34 W 18 30 29.77 1008 10 16 0.00 0.00
5:15 am 05:15 Clear 48 9 21 -6 34 34 W 21 33 29.80 1009 10 16 0.00 0.00
5:35 am 05:35 Clear 48 9 21 -6 34 34 W 21 33 29.80 1009 10 16 0.00 0.00
5:55 am 05:55 Clear 46 8 21 -6 37 37 W 21 33 29.83 1010 10 16 0.00 0.00
6:15 am 06:15 Clear 46 8 21 -6 37 37 W 18 30 29.83 1010 10 16 0.00 0.00
6:35 am 06:35 Clear 46 8 21 -6 37 37 W 17 28 29.83 1010 10 16 0.00 0.00
6:55 am 06:55 Clear 45 7 21 -6 39 39 W 17 28 29.85 1011 10 16 0.00 0.00
7:15 am 07:15 Clear 45 7 21 -6 39 39 W 17 28 29.85 1011 10 16 0.00 0.00
7:35 am 07:35 Sunny 45 7 23 -5 42 42 W 18 30 29.91 1013 10 16 0.00 0.00
7:55 am 07:55 Sunny 45 7 23 -5 42 42 W 18 30 29.91 1013 10 16 0.00 0.00
8:15 am 08:15 Sunny 46 8 23 -5 40 40 W 23 37 29.88 1012 10 16 0.00 0.00
8:35 am 08:35 Sunny 46 8 25 -4 43 43 W 21 33 29.88 1012 10 16 0.00 0.00
8:55 am 08:55 Sunny 48 9 23 -5 37 37 W 24 39 29.91 1013 10 16 0.00 0.00
9:15 am 09:15 Sunny 48 9 23 -5 37 37 W 24 39 29.91 1013 10 16 0.00 0.00
9:35 am 09:35 Sunny 50 10 23 -5 35 35 W 24 39 29.91 1013 10 16 0.00 0.00
9:55 am 09:55 Sunny 52 11 23 -5 32 32 W 23 37 29.88 1012 10 16 0.00 0.00
10:15 am 10:15 Sunny 54 12 23 -5 30 30 W 23 37 29.91 1013 10 16 0.00 0.00
10:35 am 10:35 Sunny 54 12 25 -4 33 33 WNW 22 35 29.91 1013 10 16 0.00 0.00
10:55 am 10:55 Sunny 55 13 25 -4 31 31 WNW 21 33 29.91 1013 10 16 0.00 0.00
11:15 am 11:15 Sunny 55 13 25 -4 31 31 W 23 37 29.91 1013 10 16 0.00 0.00
11:35 am 11:35 Sunny 57 14 25 -4 29 29 W 21 33 29.91 1013 10 16 0.00 0.00
11:55 am 11:55 Sunny 57 14 25 -4 29 29 W 22 35 29.91 1013 10 16 0.00 0.00
12:15 pm 12:15 Sunny 61 16 25 -4 25 25 W 18 30 29.88 1012 10 16 0.00 0.00
12:35 pm 12:35 Sunny 61 16 25 -4 25 25 W 18 30 29.88 1012 10 16 0.00 0.00
12:55 pm 12:55 Sunny 61 16 25 -4 25 25 W 15 24 29.88 1012 10 16 0.00 0.00
1:15 pm 13:15 Sunny 63 17 25 -4 24 24 WNW 14 22 29.88 1012 10 16 0.00 0.00
1:35 pm 13:35 Sunny 63 17 23 -5 22 22 WNW 13 20 29.88 1012 10 16 0.00 0.00
1:55 pm 13:55 Sunny 63 17 23 -5 22 22 W 14 22 29.85 1011 10 16 0.00 0.00
2:15 pm 14:15 Sunny 64 18 23 -5 21 21 W 13 20 29.85 1011 10 16 0.00 0.00
2:35 pm 14:35 Sunny 64 18 23 -5 21 21 WSW 14 22 29.85 1011 10 16 0.00 0.00
2:55 pm 14:55 Sunny 64 18 21 -6 19 19 WSW 13 20 29.85 1011 10 16 0.00 0.00
3:15 pm 15:15 Sunny 64 18 21 -6 19 19 W 13 20 29.85 1011 10 16 0.00 0.00
3:35 pm 15:35 Sunny 64 18 23 -5 21 21 WSW 15 24 29.85 1011 10 16 0.00 0.00
3:55 pm 15:55 Sunny 64 18 25 -4 22 22 SW 18 30 29.85 1011 10 16 0.00 0.00
4:15 pm 16:15 Sunny 64 18 25 -4 22 22 SSW 18 30 29.85 1011 10 16 0.00 0.00
4:35 pm 16:35 Sunny 64 18 25 -4 22 22 S 18 30 29.85 1011 10 16 0.00 0.00
4:55 pm 16:55 Sunny 64 18 25 -4 22 22 NNE 17 28 29.85 1011 10 16 0.00 0.00
5:15 pm 17:15 Sunny 64 18 25 -4 22 22 SSE 16 26 29.85 1011 10 16 0.00 0.00
5:35 pm 17:35 Sunny 63 17 25 -4 24 24 S 13 20 29.85 1011 10 16 0.00 0.00
5:55 pm 17:55 Sunny 61 16 27 -3 27 27 S 12 19 29.85 1011 10 16 0.00 0.00
6:15 pm 18:15 Clear 57 14 27 -3 31 31 S 12 19 29.88 1012 10 16 0.00 0.00
6:35 pm 18:35 Clear 54 12 27 -3 35 35 S 10 17 29.88 1012 10 16 0.00 0.00
6:55 pm 18:55 Clear 54 12 27 -3 35 35 S 9 15 29.88 1012 10 16 0.00 0.00
7:15 pm 19:15 Clear 54 12 28 -2 38 38 SSE 13 20 29.88 1012 10 16 0.00 0.00
7:35 pm 19:35 Clear 52 11 27 -3 38 38 W 9 15 29.88 1012 10 16 0.00 0.00
7:55 pm 19:55 Clear 52 11 27 -3 38 38 N 9 15 29.88 1012 10 16 0.00 0.00
8:15 pm 20:15 Clear 48 9 27 -3 43 43 W 9 15 29.91 1013 10 16 0.00 0.00
8:35 pm 20:35 Clear 52 11 27 -3 38 38 ESE 10 17 29.88 1012 10 16 0.00 0.00
8:55 pm 20:55 Clear 50 10 27 -3 40 40 E 8 13 29.91 1013 10 16 0.00 0.00
9:15 pm 21:15 Clear 48 9 27 -3 43 43 WSW 8 13 29.91 1013 10 16 0.00 0.00
9:35 pm 21:35 Clear 48 9 27 -3 43 43 undefined N/A 29.91 1013 10 16 0.00 0.00
9:55 pm 21:55 Clear 48 9 27 -3 43 43 undefined N/A 29.91 1013 10 16 0.00 0.00
10:15 pm 22:15 Clear 48 9 27 -3 43 43 undefined N/A 29.91 1013 10 16 0.00 0.00
10:35 pm 22:35 Clear 48 9 25 -4 40 40 undefined N/A 29.91 1013 10 16 0.00 0.00
10:55 pm 22:55 Clear 46 8 25 -4 43 43 WSW 7 11 29.91 1013 10 16 0.00 0.00
11:15 pm 23:15 Clear 45 7 25 -4 46 46 WSW 9 15 29.94 1014 10 16 0.00 0.00
11:35 pm 23:35 Clear 45 7 27 -3 49 49 SW 9 15 29.94 1014 10 16 0.00 0.00
11:55 pm 23:55 Clear 45 7 25 -4 46 46 SW 7 11 29.94 1014 10 16 0.00 0.00

Powered by AerisWeather